Terminal Aerodrome Forecast
Issued by NWS Grand Forks, ND

Home | Current Version | Previous Version | Graphics & Text | Print | Product List | Glossary On
Versions: 1 2 3 4 5 6 7 8 9 10 11 12 13 14 15
000
FTUS43 KFGF 012320
TAFFAR
TAF
KFAR 012320Z 0200/0224 13007KT P6SM SCT120
     FM021500 15010KT P6SM SKC=

USA.gov is the U.S. government's official web portal to all federal, state and local government web resources and services.